Wetbulb
72.00 69.54 68.74 67.73 65.31 63.08 63.83 63.02 63.58 63.51 63.19 61.75 60.98 60.51 60.87 60.48 60.97 61.18 60.28 58.97 58.83 57.64
70.92 70.66 69.93 68.51 66.36 64.91 64.75 62.09 62.38 62.01 61.18 60.40 60.25 59.90 60.19 59.68 59.49 60.12 60.30 59.47 59.43 56.97
71.24 69.96 66.55 64.57 64.16 64.16 62.72 61.72 61.05 60.61 60.25 59.57 59.30 59.01 59.93 59.83 59.48 59.34 58.86 57.83 57.66 56.83
68.60 66.45 64.64 63.71 63.25 62.01 61.32 61.05 59.97 59.63 59.39 59.04 58.84 58.78 60.09 58.83 58.29 57.86 57.28 57.02 55.83 55.46
66.84 65.33 63.54 62.71 62.25 61.48 60.07 60.04 59.55 58.30 58.32 58.10 58.13 58.86 58.09 57.86 57.14 56.14 55.04 54.91 54.85 54.26
65.20 63.98 62.84 62.32 61.26 60.88 59.96 59.50 58.55 58.63 57.35 56.78 57.71 57.19 57.23 57.28 56.17 55.23 54.97 54.48 53.83 53.58
63.71 63.42 62.62 61.79 60.77 60.04 59.56 58.26 58.17 58.62 57.15 57.28 56.25 56.60 56.55 55.65 55.44 54.57 53.95 53.97 53.84 52.95
63.62 62.95 62.26 60.51 59.26 59.81 58.97 58.51 58.50 57.42 56.85 56.63 55.78 54.09 54.24 54.96 54.09 53.91 53.23 53.35 52.73 52.95
62.36 61.43 60.46 59.86 59.25 58.76 58.38 57.59 55.66 54.25 54.80 55.19 55.12 47.64 47.04 48.18 51.29 51.91 51.97 51.51 52.20 52.53
60.76 60.66 59.69 59.33 58.62 57.65 56.95 56.54 55.56 54.68 53.64 52.47 51.34 45.84 45.95 46.36 49.52 50.55 51.23 51.28 51.18 51.04
58.74 58.78 58.43 57.66 55.33 54.65 54.10 52.79 50.19 48.33 48.01 48.46 47.07 43.97 43.56 44.25 47.96 49.53 50.52 49.74 49.16 50.44
55.59 52.36 49.66 49.81 46.92 47.97 47.79 46.04 45.70 45.10 44.66 44.38 45.10 44.07 42.79 43.01 47.36 48.63 49.20 49.39 49.85 49.37
46.79 45.30 44.47 44.17 44.04 45.06 44.18 43.41 44.03 43.36 44.51 44.65 45.19 43.94 42.95 42.90 46.61 46.35 46.74 49.42 49.05 46.95
42.87 42.37 43.12 42.66 43.18 43.12 42.92 43.18 42.76 43.20 45.64 46.23 46.90 46.69 42.39 41.91 45.64 46.27 46.52 46.63 47.54 48.41
MSLP
1009.87 1010.73 1011.76 1012.01 1013.07 1013.89 1014.14 1014.83 1016.05 1016.34 1016.97 1017.43 1017.77 1017.93 1018.06 1017.75 1017.70 1018.25 1018.25 1018.42 1018.50 1017.78
1009.59 1010.47 1011.20 1011.84 1013.02 1013.52 1014.00 1014.76 1015.86 1016.25 1016.82 1017.37 1017.66 1017.80 1018.10 1017.82 1017.89 1018.13 1018.38 1018.62 1018.66 1018.35
1009.09 1009.88 1010.87 1011.82 1012.43 1013.45 1014.35 1015.09 1015.82 1016.20 1016.25 1017.28 1017.63 1017.87 1017.86 1017.94 1018.27 1018.08 1018.24 1018.42 1018.86 1018.76
1009.36 1010.10 1010.96 1011.64 1012.46 1013.96 1014.96 1015.42 1015.72 1016.14 1016.28 1016.80 1017.37 1017.94 1018.03 1018.00 1018.30 1018.39 1018.66 1019.04 1018.93 1018.97
1009.47 1010.26 1011.04 1011.88 1012.98 1014.09 1015.03 1015.51 1016.06 1016.26 1016.89 1016.40 1017.42 1018.18 1017.86 1017.95 1018.30 1018.52 1018.50 1018.83 1018.95 1018.80
1009.66 1010.36 1011.21 1012.18 1013.26 1014.00 1014.74 1015.35 1016.04 1016.84 1016.69 1016.67 1017.73 1018.34 1018.04 1018.22 1018.44 1018.77 1018.94 1019.11 1019.29 1019.03
1009.86 1010.62 1011.59 1012.54 1013.61 1014.37 1015.26 1015.67 1016.21 1016.16 1016.47 1017.31 1018.12 1018.23 1018.34 1018.31 1018.52 1018.78 1018.80 1019.05 1018.94 1018.96
1009.94 1010.98 1011.96 1013.10 1014.23 1014.33 1015.23 1015.95 1016.20 1016.18 1016.93 1017.83 1018.19 1018.14 1018.70 1018.77 1018.77 1018.84 1019.15 1019.22 1019.03 1018.91
1010.12 1011.31 1012.43 1013.27 1013.97 1014.81 1015.38 1015.91 1016.45 1016.86 1017.30 1017.69 1017.72 1018.76 1019.38 1019.49 1019.19 1019.09 1019.10 1019.00 1018.96 1018.78
1010.44 1011.33 1012.45 1013.32 1014.34 1015.23 1015.66 1016.10 1016.62 1017.34 1017.92 1018.28 1018.78 1019.49 1019.96 1019.90 1019.66 1019.35 1018.95 1018.70 1018.78 1018.70
1011.26 1011.99 1012.98 1013.84 1014.98 1016.05 1016.70 1017.01 1017.58 1017.96 1018.06 1018.78 1019.31 1019.69 1019.74 1019.96 1019.48 1019.08 1018.89 1018.78 1018.78 1018.40
1012.46 1013.32 1014.48 1015.32 1016.46 1017.42 1017.96 1018.51 1018.66 1018.99 1019.22 1019.03 1019.69 1020.18 1019.83 1019.64 1019.42 1018.66 1018.65 1018.42 1018.33 1018.56
1014.86 1015.65 1016.01 1016.28 1016.80 1017.59 1017.80 1018.64 1019.14 1019.35 1019.72 1019.58 1019.52 1019.66 1019.65 1019.97 1019.43 1018.83 1018.24 1017.96 1017.77 1017.66
1016.38 1016.28 1017.43 1018.11 1018.15 1018.96 1018.79 1018.84 1019.25 1019.23 1018.86 1019.09 1019.26 1019.42 1019.68 1019.89 1019.64 1018.78 1018.21 1017.88 1017.49 1017.31
Wind_Speed
17 10 9 12 10 8 10 10 12 10 8 8 6 5 4 4 3 4 3 4 4 4
17 16 13 15 14 10 10 11 12 11 10 8 6 5 4 4 4 3 1 2 2 5
17 17 16 15 15 13 12 13 12 12 11 8 6 4 2 4 3 3 2 3 3 5
14 16 16 13 14 13 12 13 13 11 10 9 6 4 2 3 3 2 3 4 5 6
15 16 16 15 15 15 13 11 11 10 8 8 6 5 4 1 2 3 4 5 6 7
16 16 16 16 16 15 14 13 11 8 8 7 6 4 3 2 3 5 6 6 8 9
14 14 14 14 14 13 11 11 11 10 8 6 5 3 2 3 3 5 6 7 7 9
13 12 13 13 14 13 12 10 9 10 8 6 3 4 5 5 5 6 8 9 9 9
12 13 14 14 14 12 12 11 10 9 8 6 2 9 4 5 7 8 8 9 9 8
14 14 14 14 14 13 13 12 10 8 6 6 6 9 6 6 8 10 9 9 10 10
11 12 14 13 11 10 10 10 9 8 8 6 5 5 3 5 8 10 11 10 11 11
12 14 13 14 13 10 9 8 8 6 4 4 4 4 5 4 9 9 11 11 11 12
12 12 11 12 10 9 9 7 4 3 2 6 6 4 2 5 9 10 9 11 11 10
14 15 12 10 10 7 6 5 3 1 2 4 6 7 4 2 9 9 9 10 10 8
Wind_Direction
162 162 153 161 156 169 169 157 157 155 145 142 144 136 135 132 96 81 77 57 17 328
168 162 164 155 165 164 154 144 160 149 145 144 139 132 155 105 132 119 53 88 18 316
173 165 155 156 160 159 151 154 154 150 138 143 129 130 188 168 124 87 24 330 339 324
166 157 155 150 146 149 153 156 154 151 142 138 131 138 132 59 57 15 355 330 328 320
164 152 147 149 153 155 157 154 150 145 149 131 133 163 138 108 39 327 319 318 309 305
159 156 151 154 153 158 152 153 151 159 139 120 147 155 112 47 358 337 328 322 312 315
158 154 154 153 154 152 154 147 162 147 128 130 150 100 40 30 344 318 311 296 301 308
153 155 150 152 162 152 148 159 147 129 118 137 138 52 5 337 319 319 312 312 307 303
156 153 163 159 155 156 150 143 132 135 150 145 83 69 39 331 324 317 308 309 308 305
167 166 162 160 158 156 147 142 133 109 80 55 27 51 10 353 301 307 302 301 301 297
161 163 163 154 126 117 118 113 105 103 87 48 41 56 1 312 287 286 287 291 283 281
125 113 116 114 116 112 100 82 78 73 65 64 345 300 258 304 282 273 282 278 276 281
85 91 103 107 101 99 98 92 97 105 229 215 245 242 280 296 293 296 294 287 280 245
62 74 69 64 70 71 86 118 134 210 297 304 301 290 225 295 289 295 297 301 297 298